Location: Theodore Roosevelt National Park
(46.9990°N, 103.4631°W)
Time: 11:30:29
(UTC-06:00)

Iridium 37 - Visible Passes

Search period start: 02 September 2014 00:00
Search period end: 12 September 2014 00:00
Orbit: 776 x 779 km, 86.4° (Epoch: 02 September)

Date Brightness Start Highest point End Pass type
(mag) Time Alt. Az. Time Alt. Az. Time Alt. Az.
02 Sep 7.9 02:34:34 12° ESE 02:37:20 17° ENE 02:40:38 10° NE visible
02 Sep 5.5 04:15:04 32° SSW 04:17:28 67° W 04:22:41 10° N visible
03 Sep 5.7 03:42:03 40° SSE 03:43:56 71° E 03:49:08 10° N visible
03 Sep 7.1 05:22:33 12° WSW 05:25:14 17° WNW 05:28:33 10° NNW visible
04 Sep 6.6 03:09:00 33° ESE 03:10:31 40° E 03:15:22 10° NNE visible
04 Sep 6.5 04:49:30 23° WSW 04:51:22 28° WNW 04:55:50 10° NNW visible
05 Sep 7.4 02:35:57 22° ESE 02:37:14 24° E 02:41:18 10° NNE visible
05 Sep 5.8 04:16:26 40° WSW 04:17:37 48° W 04:22:41 10° N visible
06 Sep 8.0 02:02:52 13° E 02:04:03 14° ENE 02:06:36 10° NE visible
06 Sep 5.4 03:43:21 68° SSW 03:44:01 83° W 03:49:16 10° N visible
06 Sep 7.4 05:23:51 10° W 05:25:37 12° WNW 05:27:34 10° NW visible
07 Sep 5.9 03:10:15 56° ESE 03:10:32 57° E 03:15:38 10° NNE visible
07 Sep 6.9 04:50:44 20° W 04:51:39 21° WNW 04:55:31 10° NNW visible
08 Sep 6.9 02:37:08 33° E 02:37:10 33° E 02:41:46 10° NNE visible
08 Sep 6.2 04:17:37 34° W 04:17:50 34° WNW 04:22:35 10° NNW visible
09 Sep 7.6 02:04:00 19° ENE 02:04:00 19° ENE 02:07:31 10° NE visible
09 Sep 5.6 03:44:29 58° WNW 03:44:29 58° WNW 03:49:19 10° N visible
10 Sep 8.2 01:30:51 11° ENE 01:30:51 11° ENE 01:32:04 10° ENE visible
10 Sep 5.8 03:11:20 65° NNE 03:11:20 65° NNE 03:15:48 10° N visible
10 Sep 7.3 04:51:49 15° WNW 04:51:59 15° WNW 04:54:55 10° NW visible
11 Sep 6.7 02:38:10 40° NE 02:38:10 40° NE 02:42:05 10° NNE visible
11 Sep 6.8 04:18:39 25° WNW 04:18:39 25° WNW 04:22:22 10° NNW visible
